Location: Observatoire de Paris
(48.8363°N, 2.3365°E)
Time: 04:04:12
(UTC+01:00)

Vanguard 3 - Pass Details

Date: 03 August 2021
Orbit: 510 x 3260 km, 33.3° (Epoch: 18 September)

Event Time Altitude Azimuth Distance (km) Brightness Sun altitude
Rises 23:07:59 0° 272° (W) 6,718 12.2 -19.6°
Reaches altitude 10° 23:12:52 10° 264° (W) 5,940 11.8 -20.0°
Maximum altitude 23:28:33 33° 211° (SSW) 4,524 10.6 -21.1°
Enters shadow 23:36:32 25° 176° (S) 4,825 10.5 -21.5°
